Wind_Speed
13 16 18 22 25 25 26 26 25 24 24 26 26 26 26 24 23 21 18 18 20 20 19 19 19 20 19 18 17 17 17 17 16 15 16 16 15 15 13 11 11 11 11 11 10 11 12 13 12 12 13 15 15 14 13 13 19 25 25 22 20 18 18 18 15 10 10 11 12 12 10 8 6 5 4 4 3 3 2 2 3 6 8 8 11
16 19 22 24 26 26 26 26 25 24 25 26 26 27 27 25 23 21 20 21 20 19 18 18 18 18 18 17 16 16 16 16 15 14 14 15 14 13 11 9 9 10 10 9 9 8 8 9 10 10 11 12 12 12 13 14 16 22 23 21 21 20 17 17 17 13 11 12 14 13 11 10 7 5 4 2 1 3 3 2 4 6 7 9 11
21 22 21 22 23 23 23 23 23 24 25 25 25 27 27 25 22 21 22 22 19 18 18 17 16 16 17 17 16 15 15 14 15 14 13 14 14 13 12 11 10 10 10 9 8 6 5 6 9 9 9 11 12 12 14 15 17 20 21 20 20 18 15 15 16 15 14 13 14 14 13 11 8 5 4 3 3 4 6 7 9 9 8 9 11
24 20 15 16 18 20 21 21 21 22 24 25 25 27 26 24 21 21 23 22 19 18 17 15 15 16 17 16 14 14 14 15 16 15 13 14 17 16 14 13 11 10 10 9 8 7 6 7 9 8 9 11 12 13 14 16 16 18 18 17 15 14 12 12 13 15 16 13 12 13 13 10 9 7 5 7 9 10 11 12 11 9 8 10 11
26 20 13 12 15 19 21 21 22 21 21 23 25 25 25 23 21 21 22 21 19 17 16 15 15 15 16 15 15 15 14 15 17 15 13 15 18 17 15 13 11 10 10 10 10 9 7 9 10 8 8 10 11 12 13 15 16 16 16 15 14 13 12 12 13 14 15 13 10 10 9 8 7 7 7 10 13 13 11 11 9 7 7 9 11
24 20 15 13 14 17 17 18 21 20 19 22 24 25 25 23 21 22 22 21 19 17 16 16 15 15 16 16 16 16 15 15 16 15 14 14 15 14 13 12 10 10 11 11 11 10 8 9 10 9 8 9 10 11 12 14 15 16 16 15 14 13 12 12 12 13 14 13 10 9 9 8 9 10 9 9 9 9 7 6 5 5 7 10 12
19 16 16 16 15 16 16 16 18 18 18 21 23 25 25 24 23 22 21 20 19 17 16 17 16 17 17 18 18 18 16 16 16 16 15 14 13 12 11 10 9 9 10 11 11 10 9 9 10 9 8 8 8 10 12 13 14 14 14 14 14 13 12 12 12 13 14 12 9 9 10 10 10 11 10 7 6 5 3 2 4 7 10 13 14
16 13 14 17 16 16 17 19 20 19 18 19 20 23 23 22 22 21 18 17 17 17 17 18 18 18 19 20 20 20 19 17 18 17 15 13 12 10 8 8 9 9 9 11 12 11 10 11 11 10 9 8 7 7 8 10 11 11 10 10 12 13 13 13 13 13 14 12 10 9 11 11 10 10 8 5 3 2 4 6 8 11 13 15 15
15 13 14 16 16 16 17 20 20 19 19 19 19 20 20 19 19 19 17 14 15 18 18 20 21 19 20 21 21 21 21 20 19 17 15 12 11 10 8 8 9 10 11 12 13 13 13 13 13 12 11 9 9 7 7 7 7 8 8 8 9 11 13 13 13 13 12 12 11 10 11 11 9 8 6 3 2 3 5 7 9 11 14 14 13
16 16 17 16 15 16 17 20 21 20 20 21 21 19 17 17 19 19 18 16 18 21 22 23 23 21 21 22 22 22 22 21 19 17 15 14 12 11 10 8 9 11 13 14 14 14 13 14 14 14 13 10 9 8 7 6 6 7 8 7 7 9 10 10 10 10 10 11 11 10 10 10 8 6 4 4 3 4 5 8 10 12 14 15 13
15 16 16 15 14 15 16 19 20 20 20 21 22 20 18 19 20 20 20 20 22 25 26 24 24 23 22 23 23 22 21 20 18 16 15 14 13 11 9 8 8 10 11 13 14 14 14 14 15 15 13 12 11 10 9 7 6 6 7 8 8 7 8 8 8 8 9 10 10 9 9 9 7 5 4 3 2 5 7 9 11 12 13 12 11
12 12 12 12 12 12 13 16 18 20 20 19 20 20 19 21 23 21 20 19 20 24 26 27 27 26 24 24 23 21 20 19 17 16 15 15 12 9 8 8 8 9 9 11 14 15 16 16 15 14 12 12 12 11 10 9 8 7 7 8 8 7 7 7 7 7 8 9 9 8 8 8 7 5 3 2 4 6 8 9 10 11 11 11 10
11 11 11 10 10 11 12 14 16 17 18 18 19 20 20 22 24 24 21 18 16 18 24 27 28 27 25 23 22 20 19 18 18 17 17 15 12 10 9 10 10 10 12 13 14 16 18 17 16 14 12 11 11 10 10 9 9 9 9 8 8 8 7 6 6 6 6 7 9 8 7 6 4 3 2 4 6 8 9 10 11 10 10 10 10
7 8 9 8 9 9 10 12 13 13 15 17 18 19 19 21 23 24 23 20 17 17 21 26 27 26 25 23 21 20 19 18 18 18 18 15 13 12 14 14 13 13 14 15 16 17 19 18 17 16 14 12 10 9 8 8 8 9 9 8 8 7 6 6 5 5 5 5 6 7 7 4 2 2 4 6 8 9 9 9 9 8 8 8 7
6 5 6 7 7 8 9 10 10 9 10 13 16 17 17 17 18 20 20 20 18 18 21 25 25 24 23 22 21 20 20 19 19 19 17 15 15 17 18 17 16 15 15 16 17 18 19 18 17 16 15 12 10 9 7 7 9 10 10 9 8 8 7 6 5 5 5 5 4 5 5 3 2 4 6 7 7 8 7 6 5 5 6 6 4
14 7 5 6 6 5 6 7 7 7 6 7 10 13 15 14 13 14 17 18 19 21 24 25 24 22 21 20 21 21 20 20 20 19 18 17 19 20 20 19 17 16 16 17 18 18 18 17 16 16 15 13 12 9 8 10 12 13 13 12 11 10 9 9 8 7 5 5 4 4 3 3 4 5 6 5 6 6 5 4 4 4 5 5 4
24 18 11 5 4 3 2 2 2 4 5 5 6 10 14 14 12 12 13 15 17 20 23 22 21 19 18 19 20 20 20 20 19 19 19 20 21 22 21 21 19 18 16 16 17 19 18 16 15 15 15 14 12 10 9 11 13 14 14 14 13 12 11 10 8 7 6 5 4 3 3 4 4 4 3 3 4 5 4 3 3 4 6 6 5
26 26 22 15 9 3 1 2 2 2 3 3 4 7 11 14 15 14 14 12 13 16 16 15 17 17 16 18 19 18 19 19 19 20 20 20 21 23 23 22 20 19 17 16 17 18 17 16 14 14 14 14 12 11 10 11 12 13 13 14 14 12 11 9 8 7 6 5 3 2 2 2 2 1 2 3 4 5 5 4 3 4 5 6 6
23 23 24 23 22 17 12 7 4 2 2 3 4 5 8 11 14 15 14 13 13 15 15 15 16 17 17 17 16 16 17 18 19 21 21 20 22 24 24 22 21 20 19 18 18 18 18 17 15 13 13 13 12 11 10 10 11 12 12 14 14 13 11 10 8 7 6 4 3 2 0 1 2 3 3 4 4 4 5 4 4 4 6 6 8
21 21 20 20 22 23 23 20 16 11 8 5 3 3 5 8 10 12 12 13 14 15 15 15 15 16 16 15 14 14 16 19 20 21 20 19 21 23 23 22 21 21 20 20 20 20 18 17 15 13 12 13 12 11 10 10 11 12 12 12 13 13 12 10 8 6 3 2 2 2 2 2 2 2 2 2 2 2 2 3 4 5 7 7 8
19 20 19 19 20 21 22 22 20 19 16 13 9 6 3 4 7 11 11 10 12 13 13 12 13 14 13 13 14 14 15 17 19 20 20 18 18 20 22 23 22 22 22 21 20 20 19 17 15 13 12 12 12 11 10 10 10 12 12 11 11 11 10 8 6 4 2 2 3 3 2 2 2 3 3 4 4 5 4 4 5 5 5 5 6
19 19 19 20 20 20 21 21 20 19 17 16 15 14 13 9 3 6 8 8 9 11 13 13 13 14 14 13 13 13 14 16 18 20 21 19 17 19 22 24 23 22 22 23 22 21 19 18 16 15 13 12 12 12 11 11 11 11 10 9 8 8 5 4 3 3 4 5 5 5 6 6 5 5 5 5 5 5 4 4 3 3 3 4 4
18 18 19 19 20 20 20 21 21 19 18 16 15 15 16 15 11 7 3 5 7 10 13 17 17 17 17 16 15 14 14 15 17 19 21 20 18 19 20 23 24 23 22 23 23 22 21 20 19 17 15 14 13 12 11 10 9 9 8 7 5 4 3 2 3 4 5 6 7 7 7 6 6 5 5 4 4 3 3 3 3 3 3 4 4
19 19 19 20 20 19 19 19 20 20 19 17 15 14 16 15 13 13 12 7 5 7 9 13 18 20 19 17 16 16 17 17 17 18 19 20 19 19 20 21 22 23 22 22 23 23 22 21 20 18 16 14 12 11 9 8 7 7 6 5 4 4 4 4 5 5 6 7 7 7 7 6 5 5 5 4 3 2 3 3 4 5 6 6 7
19 20 20 20 20 20 18 17 18 18 19 18 16 15 16 16 14 14 16 15 10 9 7 6 9 13 14 13 12 13 15 17 18 18 17 17 17 18 19 20 21 24 24 23 23 23 22 21 20 18 16 13 11 10 9 8 7 6 6 6 6 7 7 8 7 6 5 6 6 6 6 4 4 4 4 4 3 4 5 6 7 9 11 12 12
19 19 19 19 20 20 19 18 18 17 16 17 16 15 16 17 15 13 15 16 13 11 10 9 6 6 9 13 14 14 15 16 17 17 17 17 16 16 18 18 18 21 24 25 25 23 22 22 20 18 15 13 11 11 10 9 8 8 8 9 9 9 9 8 7 5 5 6 6 5 4 3 2 3 3 4 6 7 8 10 12 13 13 12 11
18 18 18 18 18 19 19 20 20 18 17 16 16 15 15 16 16 15 13 13 13 13 14 15 12 8 7 8 9 12 14 14 15 17 18 16 13 13 16 17 17 20 24 26 26 25 24 23 20 17 15 13 12 11 11 10 10 11 11 12 11 10 9 7 4 4 6 7 7 5 3 1 1 2 4 6 7 8 9 11 12 11 10 10 11
16 16 17 17 17 18 19 20 20 19 18 17 17 16 15 15 16 15 13 12 14 15 15 15 17 19 18 13 9 10 11 12 14 15 15 15 13 9 9 13 16 20 23 25 26 26 25 23 21 18 16 15 14 12 11 10 11 12 13 13 11 10 8 6 5 5 6 7 5 3 2 1 1 3 4 5 6 7 9 10 9 8 8 10 11
15 15 16 16 17 17 18 19 20 20 18 16 16 15 14 14 15 13 10 9 11 13 14 15 16 20 22 20 20 21 19 17 19 18 16 19 20 13 8 10 13 16 20 24 26 27 26 24 22 20 18 16 14 12 10 10 11 12 12 12 10 8 7 6 5 5 6 5 2 2 1 1 2 2 3 4 6 7 8 8 7 7 9 10 11
14 14 15 15 16 16 17 17 18 18 17 17 17 16 13 11 12 12 10 6 7 10 11 13 15 17 20 20 22 25 25 23 24 22 19 19 19 15 12 15 17 18 20 23 25 26 25 23 21 20 18 16 14 11 10 10 11 12 12 10 9 7 6 6 6 5 4 3 1 2 1 0 1 2 3 5 7 7 7 6 7 8 10 10 11
13 13 13 13 13 14 14 15 15 16 16 15 16 17 16 12 10 11 12 8 6 7 9 9 9 11 15 17 20 23 25 23 22 23 22 20 18 16 18 20 20 19 21 22 22 22 20 18 18 17 16 14 12 11 11 12 13 13 12 10 8 7 6 7 7 5 4 3 2 1 1 2 2 3 5 6 6 6 7 7 7 8 8 8 10
13 12 12 11 11 11 12 13 14 15 15 15 15 15 16 15 13 10 11 11 7 6 6 7 8 10 12 14 16 20 23 23 23 23 24 24 23 22 24 25 22 20 21 23 22 22 20 18 16 16 15 13 12 11 13 14 15 14 13 12 10 9 7 7 7 6 4 3 3 3 4 4 3 4 5 5 5 6 7 7 5 5 6 8 10
13 12 12 11 11 11 11 11 12 13 15 15 15 14 14 14 14 13 11 12 9 6 6 6 8 11 13 13 15 17 20 21 21 22 24 27 26 25 26 26 23 22 24 25 24 24 23 20 15 14 15 15 14 13 15 17 16 16 15 13 12 10 9 8 8 7 5 4 4 5 4 3 3 4 4 4 5 6 7 6 4 5 7 9 11
13 12 12 12 12 11 10 10 11 12 14 14 14 15 14 13 13 12 12 12 11 7 6 6 6 7 9 11 12 14 15 17 18 19 21 25 27 27 27 26 24 24 25 26 24 23 22 19 16 18 20 19 17 16 17 18 17 16 16 14 13 12 10 9 8 6 5 4 4 4 4 3 3 3 2 3 5 5 4 4 4 6 8 9 11
13 12 12 12 12 11 11 11 11 11 12 13 13 13 13 12 11 10 10 11 10 7 5 5 5 5 6 8 9 9 10 13 15 17 19 21 25 27 26 25 25 27 28 28 27 25 25 24 23 24 24 21 19 19 19 17 16 17 17 15 14 13 12 10 8 6 5 5 4 4 4 4 3 2 2 3 3 3 3 3 5 7 8 9 11
12 13 13 13 12 11 11 11 11 11 11 11 12 12 12 11 11 10 9 8 7 6 4 3 3 5 6 6 6 7 7 9 12 15 17 18 20 23 25 26 28 31 32 30 28 27 27 27 26 26 24 22 20 20 19 17 17 19 18 16 15 14 13 11 9 7 6 6 4 3 4 4 3 1 2 2 3 3 4 4 5 7 8 9 11
11 11 11 10 10 10 11 12 12 11 11 12 13 13 11 10 10 9 9 7 7 7 4 2 2 4 5 6 6 7 7 9 11 13 14 13 14 17 21 24 26 27 29 30 31 29 27 25 24 21 21 21 21 19 18 19 20 20 18 15 14 14 13 11 9 8 7 6 4 3 3 3 1 1 2 2 4 5 5 4 5 7 8 8 10
8 8 9 9 10 11 12 12 12 12 13 12 10 9 8 8 8 8 8 7 6 7 6 3 2 4 5 6 6 6 6 7 7 8 10 10 11 13 16 18 19 19 19 22 26 26 23 21 20 19 20 22 21 20 21 22 22 20 16 14 14 14 13 12 10 9 8 7 5 3 1 1 2 2 1 2 3 4 4 4 5 7 8 9 10
7 8 8 9 10 11 12 13 13 11 10 8 6 5 6 7 8 8 8 7 6 8 8 5 3 4 5 5 4 4 3 3 3 5 6 7 7 8 9 11 14 16 16 17 20 20 19 19 20 21 23 23 21 22 25 24 21 18 16 16 16 14 13 12 11 10 8 7 5 3 1 1 1 1 1 1 2 3 3 4 4 5 7 9 11
9 9 9 10 11 12 11 10 8 6 5 5 5 4 5 6 7 8 8 6 5 9 10 8 6 5 3 2 2 2 2 3 3 4 5 6 5 5 6 7 8 11 14 16 17 17 16 15 14 16 19 20 22 25 25 22 19 18 17 17 17 15 13 13 12 11 9 7 4 3 2 2 2 2 2 2 2 2 4 4 3 4 6 8 10
10 10 9 10 10 10 8 6 5 5 5 6 6 6 5 5 4 5 5 6 8 11 10 7 6 5 2 1 1 1 2 2 2 3 4 5 5 5 6 6 5 7 10 12 13 13 13 12 11 13 18 22 24 24 21 19 19 19 19 18 17 16 15 14 13 11 9 6 4 3 3 3 3 3 3 2 2 4 5 4 3 4 5 7 8
8 8 7 7 7 7 6 6 7 7 6 5 4 5 6 5 3 3 5 8 9 10 10 9 7 5 4 3 2 2 2 3 3 3 4 4 4 5 6 5 4 4 7 10 11 12 13 13 14 18 22 23 21 20 20 20 20 20 19 18 17 16 16 14 12 9 7 4 3 3 3 2 2 3 3 3 4 5 5 3 2 3 5 6 8
6 6 5 5 6 6 6 8 8 6 6 6 5 5 5 6 7 9 10 11 10 10 11 11 8 6 6 5 3 2 3 5 5 4 3 3 3 5 7 6 5 7 11 14 16 17 18 18 18 19 19 18 17 18 20 20 19 18 17 17 16 16 15 13 10 7 4 3 2 2 1 1 2 3 4 4 5 4 2 0 1 3 5 7 10
7 6 5 6 7 7 8 9 9 8 7 7 7 7 8 9 10 11 12 12 11 11 11 10 8 7 7 6 5 5 7 8 7 6 6 6 7 7 7 6 8 13 18 20 21 20 18 18 18 17 17 17 17 17 18 17 16 16 16 15 15 14 12 9 7 5 3 3 2 1 0 1 2 3 4 4 4 2 1 1 2 5 6 9 12
7 7 7 7 7 9 11 11 11 10 9 8 9 9 9 10 11 11 11 11 11 11 10 9 8 8 9 9 9 10 10 11 11 11 11 12 13 13 12 13 16 20 22 21 20 19 18 18 19 19 19 19 18 17 17 16 15 13 12 11 10 9 7 6 5 5 4 3 2 1 1 2 2 3 3 3 2 1 1 1 3 6 8 11 13
6 7 8 8 8 9 9 10 11 11 10 10 10 9 9 9 9 9 9 10 10 10 10 10 10 11 12 12 13 14 14 15 15 16 16 17 18 19 19 20 22 23 22 21 20 20 20 20 19 20 20 19 18 17 16 14 12 11 9 7 6 6 5 5 4 4 4 3 3 2 3 4 4 4 3 2 1 1 2 2 3 6 9 12 14
6 7 7 8 9 9 9 9 10 10 10 10 10 10 10 9 8 8 9 9 10 11 12 12 12 13 14 15 15 16 17 18 18 19 20 21 22 23 24 24 24 24 23 22 21 20 19 19 18 18 18 16 14 13 12 10 9 7 5 4 4 4 3 4 3 3 3 3 4 4 5 5 5 5 4 3 3 2 2 3 4 6 9 12 14
5 5 5 5 6 6 6 6 7 8 9 10 10 10 10 10 9 9 9 10 11 11 12 13 13 14 15 16 17 17 18 19 20 21 22 23 23 24 25 25 25 24 23 21 20 18 17 16 14 13 13 12 10 9 8 7 5 3 2 2 2 2 2 2 2 2 2 3 4 5 6 6 6 5 4 4 4 4 3 3 4 7 9 12 13
2 3 3 3 3 3 3 3 3 5 8 9 10 11 12 11 11 11 10 10 11 11 11 11 12 12 13 14 15 16 17 18 19 20 21 21 22 21 21 20 19 18 17 16 16 14 13 12 11 11 10 9 7 6 5 4 3 3 2 2 2 2 2 2 1 1 2 2 3 4 4 4 4 4 4 5 5 5 4 3 4 7 9 11 13
2 2 2 2 2 2 2 1 2 4 7 8 8 10 11 11 10 9 9 10 10 10 10 10 11 10 10 11 11 12 14 15 16 17 17 17 16 16 15 15 14 13 13 13 13 13 12 12 10 9 8 6 5 5 4 4 4 5 5 4 4 3 2 1 0 1 1 2 2 3 3 3 2 3 4 4 4 4 3 3 4 6 8 10 11
2 2 2 2 2 2 2 2 4 6 7 8 8 8 9 9 9 9 9 10 10 10 10 10 10 10 9 9 9 9 10 11 12 12 13 12 12 13 13 13 13 13 13 13 13 12 11 10 9 8 7 7 7 6 6 6 6 5 5 4 2 1 1 1 2 3 3 3 3 4 4 4 3 3 3 3 3 3 4 4 5 6 7 8 9
Wind_Direction
150 155 157 162 168 173 177 178 178 181 180 177 175 171 169 169 167 165 165 164 164 162 162 163 163 160 157 153 149 145 143 140 137 134 131 129 127 128 128 124 120 120 121 123 125 123 123 119 109 104 109 115 118 121 127 146 175 188 191 189 182 179 172 157 141 149 172 181 176 167 164 165 165 161 144 119 130 154 141 115 96 81 71 63 55
145 163 167 168 171 173 174 175 177 179 178 176 175 171 169 169 167 165 164 162 164 168 170 169 167 165 162 159 156 150 147 146 145 144 142 140 138 137 137 135 133 131 127 127 132 130 124 116 106 102 106 109 112 123 129 130 153 176 183 179 173 172 173 159 147 146 156 171 179 178 181 187 184 182 186 182 201 221 215 156 113 106 87 66 53
158 167 165 161 163 164 164 164 165 169 172 172 172 171 170 169 168 165 162 163 167 171 173 170 168 167 165 163 161 158 157 156 154 154 152 154 155 152 148 148 147 145 141 138 141 145 145 129 111 103 105 103 106 125 138 136 141 153 160 164 166 169 175 170 159 154 153 161 173 181 189 195 198 204 203 194 199 198 173 140 124 115 90 60 50
164 167 157 144 140 137 139 145 147 153 162 168 170 171 170 168 168 167 164 165 168 170 172 173 170 169 167 165 165 165 164 162 163 161 154 154 159 157 155 157 157 159 159 156 154 152 153 150 135 119 115 110 110 126 139 140 142 147 152 159 166 170 177 181 174 165 162 160 163 176 188 198 208 209 178 140 139 141 137 130 124 108 76 53 45
168 168 149 118 109 112 121 130 136 140 151 163 168 170 171 169 169 169 167 166 167 170 175 178 177 174 173 171 170 171 170 167 168 166 156 153 157 158 159 160 159 166 172 169 167 165 162 158 151 140 135 129 121 127 140 145 147 150 152 156 164 170 176 182 180 172 169 164 153 156 171 183 185 174 153 135 130 128 125 123 118 94 64 46 39
170 163 149 132 123 127 130 130 132 136 145 160 169 171 172 172 171 171 169 167 169 175 181 185 188 187 184 180 178 179 180 176 174 170 165 162 161 160 164 165 160 164 172 175 177 179 176 171 165 155 147 143 136 134 140 144 145 146 148 150 154 160 169 179 182 179 177 170 152 137 133 142 147 140 140 147 140 129 123 120 96 46 25 18 20
170 159 155 160 157 157 160 155 153 153 150 156 168 174 173 172 171 171 168 165 171 182 188 192 197 199 197 192 189 187 186 183 180 178 177 178 175 170 173 182 184 182 182 184 189 193 191 185 182 176 162 154 152 147 143 140 136 134 137 142 147 150 156 168 177 181 181 171 155 138 124 125 136 133 133 151 155 134 105 40 3 4 5 3 4
182 180 173 173 173 174 175 171 171 171 162 157 162 167 169 169 171 170 165 165 177 189 196 198 202 207 207 202 197 193 191 188 185 184 182 181 181 179 182 193 200 205 207 203 203 207 207 200 195 196 189 172 166 165 158 149 142 133 128 133 143 147 149 154 159 162 165 158 146 140 133 129 133 135 141 159 157 87 35 10 356 354 353 354 356
188 191 186 181 179 179 177 175 176 176 173 171 169 166 167 171 174 174 168 171 187 197 203 205 205 207 206 202 198 195 194 192 190 190 191 189 189 192 195 201 209 216 219 216 211 211 212 209 203 206 203 184 172 174 169 159 154 153 150 148 150 151 148 150 152 150 150 150 146 145 141 136 138 145 151 144 85 42 22 4 353 347 343 345 352
169 171 174 178 179 178 178 181 185 186 185 186 186 183 183 186 186 182 180 187 198 204 208 208 205 204 202 196 193 192 193 194 194 197 201 202 205 206 206 211 220 222 220 215 212 207 206 206 200 198 197 187 179 181 176 167 160 157 163 169 173 170 162 158 158 157 155 153 156 161 153 140 141 147 136 103 67 27 0 349 346 343 339 341 351
157 160 164 169 173 174 177 183 190 195 197 197 198 202 206 203 194 186 187 196 205 207 208 205 203 204 202 196 193 193 194 196 198 202 205 206 208 208 209 216 218 215 211 208 204 196 189 188 184 183 185 183 182 183 181 181 179 168 165 172 180 187 188 185 177 174 171 162 161 170 166 150 142 138 128 106 43 1 355 350 345 345 346 347 348
161 161 164 172 180 183 186 190 195 200 202 201 201 205 210 206 197 189 187 194 203 206 204 202 202 203 201 197 196 196 197 199 200 203 205 206 208 208 207 208 201 192 190 192 192 186 179 174 169 168 174 180 183 186 188 190 193 190 185 180 179 181 188 197 193 187 189 180 168 166 166 157 145 132 115 56 14 358 353 350 345 343 348 351 346
162 165 167 175 187 194 197 200 204 207 208 206 203 204 207 205 200 195 194 196 199 201 201 200 199 199 197 196 196 197 199 200 201 205 206 207 211 208 194 186 178 171 174 178 179 177 174 168 163 163 168 171 173 177 182 185 187 190 192 190 186 182 182 188 190 189 196 194 181 169 162 158 144 114 46 5 355 348 344 340 337 339 346 349 347
144 154 162 172 185 194 197 197 200 207 210 209 206 204 207 210 208 205 206 207 204 201 200 199 196 196 198 198 196 196 198 200 203 205 205 208 210 197 183 178 174 169 171 175 174 173 172 169 165 164 161 159 160 160 160 164 171 175 177 178 178 180 181 181 182 180 180 186 184 170 156 147 121 48 10 357 347 341 338 334 336 346 353 352 350
91 131 152 162 179 196 201 194 189 193 202 207 207 205 207 211 210 208 210 211 211 209 204 200 197 196 198 198 197 196 197 200 202 203 204 205 199 190 183 182 181 176 174 175 177 176 174 172 170 167 162 159 159 157 147 147 153 151 148 149 151 151 152 149 145 150 154 154 154 149 139 112 50 10 356 350 343 339 339 343 356 8 360 357 8
66 85 128 152 163 181 202 203 196 193 196 203 209 210 209 206 201 203 209 212 212 209 204 200 198 197 197 198 198 197 198 199 201 204 204 198 190 189 190 186 179 174 172 176 180 180 177 176 175 170 166 162 157 149 144 142 141 138 133 132 133 135 135 133 131 129 127 124 117 113 103 61 20 2 354 349 348 351 355 2 9 358 349 355 13
57 64 76 114 160 173 197 221 212 201 198 197 204 210 209 203 195 199 207 208 205 202 197 193 193 194 197 199 201 201 199 198 201 202 196 190 189 191 188 180 172 169 170 176 181 181 179 181 181 173 168 166 161 156 155 149 142 138 134 132 133 134 131 130 130 126 117 112 108 94 63 33 17 12 10 355 346 343 334 328 326 332 353 11 9
48 54 57 62 71 82 213 276 296 256 211 199 200 204 205 204 204 208 212 213 214 216 216 210 203 201 204 209 211 211 205 199 199 196 187 183 188 188 180 172 169 168 168 169 174 175 176 178 181 178 172 169 165 164 166 162 154 148 143 142 143 143 139 138 140 137 133 127 112 85 44 27 24 359 330 324 322 314 306 305 309 331 3 20 7
40 45 49 52 55 56 57 51 29 338 285 263 246 225 212 210 213 219 223 225 228 236 242 238 221 211 213 217 218 216 209 200 195 189 182 179 183 184 179 174 170 168 167 166 165 166 168 172 175 178 177 173 171 170 171 174 171 163 159 155 153 151 150 149 148 147 143 130 109 106 183 235 247 266 286 302 305 296 291 292 298 327 352 1 353
35 39 41 44 47 47 49 52 51 45 31 3 322 271 244 229 222 224 229 234 236 239 241 237 227 217 215 215 212 208 204 197 190 186 184 182 183 186 187 183 176 172 172 172 169 166 166 167 169 173 175 172 172 169 168 176 181 175 172 169 161 156 154 151 150 152 138 111 134 187 223 252 270 283 300 319 326 320 319 327 340 354 359 355 347
31 34 35 37 37 35 36 39 41 41 38 35 38 33 354 281 239 229 228 229 234 236 231 227 225 219 212 210 208 204 200 196 193 193 193 191 188 190 195 195 189 184 180 179 178 175 173 171 169 170 171 168 166 164 157 159 166 166 165 164 156 151 151 151 153 158 151 159 178 175 135 100 93 83 69 59 55 53 45 32 19 9 0 348 336
27 29 30 31 28 26 26 25 26 27 26 28 33 34 30 24 338 255 239 233 241 246 238 229 224 216 210 211 212 206 202 203 204 203 201 199 195 193 198 201 198 192 187 184 184 182 180 178 172 169 170 168 165 165 160 157 158 160 159 158 155 154 156 159 159 154 154 161 154 125 108 105 103 94 82 72 63 50 35 21 4 342 321 313 319
21 23 26 26 23 20 18 16 17 18 14 14 18 18 19 22 21 10 322 259 261 267 254 242 235 226 217 215 215 208 203 203 207 209 208 205 201 196 199 203 202 200 195 190 188 186 182 178 173 168 169 170 167 166 167 168 171 173 174 174 178 184 193 194 179 156 143 136 126 115 107 100 92 87 76 64 50 28 4 342 325 310 299 302 309
15 18 19 19 17 16 14 11 12 11 8 9 7 2 1 3 8 13 7 341 302 299 281 251 240 234 226 221 216 210 207 204 205 210 213 212 209 203 201 203 205 207 207 201 194 189 185 180 174 171 170 171 169 169 172 177 182 186 188 189 192 195 191 175 159 143 127 121 119 115 107 92 78 67 55 44 32 3 335 325 323 320 318 315 310
16 16 15 13 11 10 9 9 9 7 8 10 6 358 355 353 352 353 349 339 323 312 306 277 252 244 238 236 231 220 216 212 208 207 210 211 212 210 207 206 207 208 212 210 202 195 190 184 177 174 174 175 176 178 180 184 187 184 180 181 182 179 170 158 149 142 132 131 133 126 115 98 65 42 30 12 351 340 336 332 330 328 325 323 320
21 17 14 11 7 3 3 3 4 3 3 6 5 2 358 354 348 341 335 332 326 302 272 263 285 286 251 244 246 241 234 227 217 210 207 204 206 210 210 210 207 206 210 212 205 194 187 183 179 177 179 180 180 179 175 173 175 173 171 172 170 167 161 153 151 159 159 154 151 141 126 100 49 15 345 331 331 335 337 334 331 331 334 338 340
25 20 15 11 6 4 2 359 358 358 358 357 357 355 355 352 346 341 337 332 324 305 275 256 251 248 234 228 236 242 243 238 225 214 207 203 204 206 204 201 199 200 205 207 200 189 183 182 180 179 178 174 170 167 163 163 165 165 165 163 159 156 154 145 140 157 162 159 154 143 126 92 5 327 323 330 335 336 335 333 333 337 344 349 348
20 17 13 8 4 4 2 359 357 354 354 356 356 351 349 347 343 341 345 340 327 315 296 268 242 228 221 213 220 242 258 260 248 234 222 217 218 213 197 191 193 197 200 199 192 185 181 179 177 176 174 171 166 163 159 158 157 156 156 156 155 156 156 149 142 144 150 153 148 129 108 50 345 338 338 337 336 336 337 337 340 346 351 348 342
13 11 8 4 1 359 358 359 359 355 351 355 358 353 349 348 344 342 344 341 329 316 297 277 257 240 232 232 236 237 238 246 253 255 249 238 232 227 207 192 197 203 202 196 189 183 180 178 177 177 176 174 171 167 164 163 160 158 157 158 162 170 174 172 167 156 151 154 141 94 72 31 359 343 330 329 334 340 343 344 349 353 352 348 341
10 8 5 2 360 357 354 354 357 357 354 353 352 349 343 343 349 356 358 348 340 335 309 279 262 251 248 251 252 245 240 242 244 243 243 238 231 223 209 200 201 207 204 194 184 178 177 176 176 178 180 180 175 171 176 181 175 168 165 164 169 180 188 192 192 182 174 174 132 84 105 282 309 300 309 328 342 352 355 355 356 352 349 347 341
11 10 5 1 358 357 356 353 352 354 356 356 353 349 341 330 329 350 359 349 330 337 330 300 274 263 258 256 253 248 246 245 244 242 241 237 230 224 217 207 200 202 203 195 183 178 179 180 181 184 187 187 184 184 190 191 184 177 175 175 176 183 192 199 201 196 188 177 147 143 242 267 286 298 315 329 342 358 2 359 357 349 341 342 341
5 5 2 360 357 354 353 351 349 348 350 354 357 357 352 340 324 331 355 355 330 311 318 310 292 284 280 271 260 251 243 240 244 250 249 244 235 225 215 206 194 188 191 191 187 188 193 193 193 196 198 197 198 200 200 195 190 188 189 188 187 189 197 201 198 192 186 188 212 251 265 268 276 295 315 328 336 346 347 342 342 339 336 345 348
353 353 351 351 351 351 350 347 344 342 343 345 346 349 353 350 336 328 340 351 340 313 306 306 287 273 270 269 266 260 251 246 247 249 248 245 237 221 208 204 199 191 189 190 190 193 195 195 202 216 217 210 208 208 204 199 196 196 199 201 198 195 195 192 186 182 188 206 235 255 257 256 276 297 320 330 323 322 322 322 330 345 351 357 353
342 341 341 342 341 344 345 339 332 332 334 334 333 334 338 345 343 331 327 334 335 318 299 305 303 283 266 257 256 256 252 248 245 243 243 242 233 218 207 206 206 202 200 200 198 194 191 196 214 227 222 214 210 207 202 200 202 204 205 205 202 196 190 185 184 188 196 207 217 223 223 235 268 290 314 318 308 304 307 324 347 356 359 357 347
338 338 339 340 338 334 332 329 326 325 326 325 324 323 325 331 335 332 325 321 315 305 299 305 315 314 292 267 257 252 244 240 239 237 236 235 227 216 207 201 197 197 202 207 208 204 202 207 215 218 217 214 210 206 202 203 206 206 200 193 191 191 187 183 183 187 188 188 188 191 201 209 220 238 281 301 305 310 325 344 354 353 352 349 342
335 335 333 332 331 329 326 323 322 321 318 316 313 311 313 321 325 327 329 314 287 274 291 317 322 330 326 301 275 260 246 240 239 237 235 235 229 218 208 202 200 201 203 207 209 210 212 213 210 210 213 213 209 206 208 208 203 196 189 184 183 184 182 181 183 182 178 175 166 150 160 172 178 219 300 317 345 356 352 351 353 348 343 342 340
330 332 333 330 328 329 328 325 324 320 314 311 308 303 302 309 315 317 321 314 279 254 253 277 294 304 312 304 289 273 259 251 247 240 235 233 228 219 215 214 212 210 209 209 208 208 210 205 198 200 210 213 209 208 209 202 192 186 184 183 182 180 179 179 181 178 175 172 162 141 146 158 171 332 344 16 33 32 25 11 354 344 339 338 338
341 343 347 346 342 338 337 338 338 332 322 315 310 301 294 300 308 307 308 310 284 246 233 231 261 272 278 279 275 269 264 257 248 234 223 216 212 215 222 225 221 218 219 214 206 202 200 192 185 190 206 214 214 210 200 190 185 184 182 179 177 176 176 175 173 172 173 172 164 157 153 52 6 359 15 40 33 22 12 352 341 338 334 331 334
354 351 351 350 349 345 343 343 342 338 332 329 326 310 295 296 296 288 292 306 284 234 212 192 190 229 257 266 260 257 253 238 211 190 186 189 197 208 220 226 224 224 223 209 195 194 200 201 198 203 212 216 212 200 189 184 183 182 177 173 174 177 178 178 176 173 174 174 169 172 218 321 331 276 277 297 312 322 318 313 328 338 330 325 330
345 346 345 342 339 337 339 341 341 341 345 350 351 339 315 297 284 270 268 271 231 200 190 178 177 188 206 231 240 242 235 217 199 184 182 185 195 207 209 207 212 218 214 200 190 193 203 207 208 214 217 210 196 186 182 181 179 175 171 173 177 179 179 179 180 177 177 180 186 202 239 259 238 233 263 293 307 308 307 309 326 334 324 325 333
346 347 344 343 344 347 357 11 13 1 350 343 345 354 356 339 307 268 236 202 176 170 167 160 157 162 161 161 182 181 181 177 172 182 192 198 207 208 204 205 217 225 220 210 203 203 207 206 202 199 194 187 180 177 177 177 176 173 172 174 177 176 173 175 178 180 183 191 209 229 240 245 240 245 268 292 307 311 310 307 313 320 319 327 336
4 4 5 9 16 23 29 22 6 357 358 358 356 8 22 28 41 101 131 133 133 131 123 111 106 105 91 79 93 119 120 110 114 139 166 186 194 187 184 194 211 218 217 213 201 190 183 178 173 172 171 171 171 173 175 176 175 173 170 171 172 172 172 173 176 181 189 203 229 243 243 247 264 276 280 284 297 311 314 303 298 319 320 322 329
39 44 48 49 51 50 34 15 7 11 29 41 44 47 59 74 90 104 111 111 107 102 97 91 86 81 77 78 86 114 119 114 112 121 137 154 167 168 172 181 182 176 176 174 166 158 153 150 151 155 159 162 167 172 174 175 175 172 170 170 170 171 172 172 175 182 192 203 215 224 236 287 300 293 281 278 292 312 341 48 305 310 314 320 330
68 80 86 85 74 58 37 27 32 41 49 58 68 73 78 86 94 98 100 100 96 91 89 89 89 89 88 91 101 113 117 117 115 112 117 124 129 137 149 156 155 156 156 152 147 147 148 146 145 146 149 153 160 165 166 167 169 170 169 169 168 166 165 166 170 175 180 186 184 175 137 349 326 308 287 281 291 308 119 153 287 304 315 327 335
75 87 94 91 73 50 39 42 51 56 58 69 81 83 83 87 88 88 90 92 90 88 88 89 91 95 97 103 109 111 112 114 114 112 116 123 127 130 136 139 141 145 147 146 145 147 148 145 142 142 142 143 145 147 149 151 153 156 157 160 162 163 163 166 170 169 171 185 200 213 271 304 319 314 297 285 285 292 255 247 276 300 319 331 336
83 94 88 72 56 47 51 59 63 63 65 73 81 84 86 86 86 86 88 90 89 90 91 92 95 100 104 107 109 110 111 113 115 114 116 120 123 126 130 134 137 140 141 142 143 142 140 138 138 138 135 134 135 137 140 144 146 148 150 156 166 173 174 176 179 179 184 203 225 250 271 285 295 297 290 268 212 234 270 259 262 293 316 331 338
73 85 76 54 42 53 73 78 73 71 75 79 82 85 86 86 87 89 89 89 91 94 95 96 98 101 103 106 109 110 112 113 114 113 114 116 119 122 125 128 131 131 131 130 130 128 126 126 126 126 126 129 132 136 139 141 143 147 152 163 175 182 183 184 193 203 214 235 255 264 271 279 282 278 268 239 206 220 247 244 259 292 316 331 339
60 67 67 47 34 50 80 88 79 78 84 85 86 88 88 86 87 89 88 90 93 95 96 99 101 101 102 104 106 108 111 113 113 113 114 115 116 118 119 120 121 121 120 119 118 117 115 115 114 116 119 122 126 130 132 131 131 139 168 199 201 196 189 188 201 230 251 266 276 277 277 279 276 264 246 226 216 222 230 242 274 298 314 329 340
104 84 78 63 45 59 94 100 81 87 98 98 96 95 95 91 88 89 90 92 94 95 96 100 102 102 103 105 106 107 110 111 112 113 114 114 115 116 116 116 116 116 115 114 112 112 113 114 115 117 119 119 119 120 115 105 95 86 88 119 140 137 136 145 165 266 270 278 288 288 286 282 269 249 231 223 224 230 238 260 294 302 308 324 341
166 136 96 88 93 94 100 108 112 118 123 121 116 112 109 104 99 100 101 102 102 102 102 102 102 102 103 105 107 109 110 110 110 111 112 113 114 116 116 116 116 115 114 113 113 114 116 118 119 119 117 112 108 103 100 99 100 96 95 103 108 106 103 100 67 287 289 303 308 306 313 317 291 251 234 226 224 231 247 275 301 302 300 316 336
170 148 72 63 134 155 134 107 122 133 136 134 134 137 136 130 124 123 120 116 114 113 111 110 110 110 108 107 106 106 105 106 107 108 109 111 114 116 117 117 118 118 117 117 117 117 116 114 112 110 105 99 95 97 101 104 101 93 86 81 71 46 350 311 306 302 304 315 319 321 328 328 306 264 241 229 231 248 268 287 304 306 299 309 328
Height
806 809 809 809 810 811 813 814 815 817 818 819 821 822 824 825 827 829 830 832 833 834 835 836 836 837 837 838 838 838 838 838 839 840 840 841 842 843 844 844 844 844 844 844 844 845 845 846 846 847 846 846 846 846 845 846 847 847 849 850 851 853 853 853 855 858 860 862 863 863 864 865 865 866 866 866 867 868 868 869 869 870 870 870 869
809 810 807 806 807 809 811 813 814 816 817 819 820 821 823 825 826 828 829 832 834 835 836 837 838 839 839 840 840 839 840 840 840 841 841 842 843 844 845 845 845 845 845 845 846 846 846 846 847 847 847 847 847 847 847 846 846 847 849 850 851 853 854 854 855 858 859 861 862 863 864 865 865 866 866 867 867 867 868 868 869 870 870 870 869
807 807 806 806 808 809 811 813 814 816 817 819 820 821 823 824 826 827 829 831 833 835 837 838 839 840 840 841 841 841 841 841 842 842 842 843 843 844 845 845 846 846 846 846 846 847 847 847 847 847 847 847 847 848 848 848 848 848 850 851 852 854 854 854 855 856 858 860 862 862 863 864 865 865 866 866 866 867 867 868 868 869 870 869 869
805 808 808 809 809 810 812 813 815 816 817 819 820 821 823 824 825 827 829 830 832 835 837 839 840 840 841 841 842 842 842 842 842 843 843 843 843 844 844 845 846 846 846 847 847 847 847 847 847 848 848 848 848 849 849 849 849 850 851 852 853 854 854 854 854 855 857 859 861 862 863 864 865 865 866 866 866 866 867 867 868 869 869 869 868
805 807 809 811 812 813 813 814 814 815 817 819 821 822 823 825 826 827 828 830 832 835 837 839 840 841 841 842 842 842 842 842 843 843 844 844 844 844 845 845 846 846 847 847 847 848 848 848 848 848 849 849 849 850 850 850 850 851 851 852 853 854 854 855 855 856 857 858 860 861 862 863 864 865 866 866 867 867 868 868 868 868 868 868 868
804 805 807 811 813 814 815 815 815 816 817 819 821 822 823 824 825 826 828 829 832 834 836 838 840 841 841 842 842 842 842 843 843 844 844 844 844 845 845 845 846 847 848 848 848 848 848 848 849 849 849 849 850 850 851 851 851 851 852 852 853 854 855 855 856 857 857 858 859 861 862 862 863 865 866 867 867 868 868 868 868 868 867 867 867
803 804 806 809 811 812 813 815 816 817 817 819 820 822 822 823 824 825 826 828 831 834 835 837 838 840 841 841 841 841 842 842 843 843 843 844 844 845 845 846 846 847 848 849 849 849 849 849 849 849 849 850 850 850 851 851 852 852 853 853 854 855 855 856 856 857 858 859 859 860 861 862 863 864 865 866 867 867 867 867 867 866 866 866 865
803 804 805 807 809 811 812 814 816 818 818 819 821 821 822 823 824 825 826 827 830 833 834 836 837 838 839 840 840 840 841 841 842 842 843 843 844 844 845 846 846 847 848 848 848 849 849 849 849 850 850 850 850 850 851 851 851 852 853 854 854 855 856 857 857 858 858 859 860 860 861 862 863 864 865 865 866 866 866 866 865 865 865 865 865
803 804 805 806 808 810 812 813 815 816 817 820 821 821 822 823 824 825 826 827 830 832 833 834 835 836 837 838 838 839 839 840 841 841 842 842 843 843 844 845 845 846 846 847 847 848 848 849 849 849 850 850 850 850 850 851 851 852 853 853 855 856 857 858 858 858 859 859 860 860 861 862 863 864 864 864 864 864 865 865 865 865 865 865 865
804 805 806 807 808 809 811 812 813 814 816 818 820 820 821 823 824 824 825 827 829 830 831 832 833 834 835 835 836 837 838 839 839 840 841 841 842 842 842 843 844 844 845 845 846 847 847 848 848 849 849 850 850 851 851 851 851 851 852 853 854 855 856 858 858 859 859 859 860 860 861 862 863 863 864 864 864 863 863 864 864 864 864 864 864
804 805 806 807 808 808 809 810 811 813 814 816 817 818 820 821 823 823 824 826 827 828 829 830 831 832 832 833 835 835 836 837 838 839 839 840 841 841 841 842 842 843 843 844 845 846 847 847 848 848 849 849 850 850 851 851 851 851 852 853 854 855 856 857 858 858 858 859 859 860 860 861 862 863 863 863 863 863 863 863 863 864 863 863 863
804 805 806 807 807 808 809 809 811 812 813 814 816 817 818 820 821 822 823 824 825 826 827 828 828 829 830 831 833 833 834 835 836 837 838 839 840 840 841 841 841 842 843 843 845 846 846 847 847 848 849 849 850 850 850 851 851 851 852 853 853 854 855 856 857 857 858 858 859 860 861 861 862 863 863 863 863 863 863 863 863 863 862 862 862
805 806 806 807 807 807 808 810 811 812 813 814 815 816 817 818 819 820 821 822 823 824 825 826 826 827 828 829 831 832 833 834 835 836 837 838 838 839 840 840 840 841 842 843 844 845 846 847 847 848 849 849 850 850 850 850 851 851 852 852 853 854 855 856 857 857 858 858 859 860 861 861 862 862 863 863 863 863 862 862 862 862 862 861 861
807 807 807 808 808 808 809 810 811 812 813 814 815 816 817 818 819 819 820 820 821 822 824 825 825 826 826 827 829 830 831 832 833 834 835 836 837 838 838 839 840 840 841 842 843 845 845 846 847 848 849 849 850 850 850 850 850 851 852 852 853 854 855 855 856 857 858 859 859 860 861 861 862 862 862 862 862 862 861 861 861 861 861 861 861
808 808 808 809 809 809 810 811 812 812 813 814 814 816 817 817 818 818 819 819 820 821 823 824 824 824 825 826 827 828 829 830 831 832 833 835 836 837 837 838 839 840 841 841 842 843 845 846 846 848 849 849 850 850 850 850 851 851 852 853 853 854 855 855 856 857 858 859 860 860 861 861 861 862 862 861 861 861 860 860 860 860 860 860 860
811 810 810 810 810 810 810 811 812 812 813 813 814 815 816 816 817 818 819 819 820 821 822 822 823 823 824 825 825 826 827 828 829 831 832 833 834 836 836 837 838 839 840 840 841 842 844 845 846 847 848 849 850 850 851 851 851 852 852 853 854 854 855 856 857 857 858 859 860 860 861 861 861 861 861 861 860 860 860 860 860 860 860 859 859
814 814 813 813 813 812 812 812 812 812 813 814 814 814 815 816 817 818 819 820 821 821 821 820 821 822 823 823 824 824 825 827 828 829 830 832 833 834 835 836 837 838 839 840 841 841 843 844 845 846 847 848 849 850 851 851 851 852 852 853 854 855 855 856 857 858 859 859 860 861 861 861 861 861 860 860 860 860 860 860 860 859 858 858 858
817 816 816 816 815 815 814 813 813 812 813 814 815 815 815 816 817 817 818 820 822 822 821 820 820 822 822 822 823 824 825 826 827 828 830 831 833 833 834 835 836 837 838 840 840 841 843 844 845 845 846 847 848 849 850 851 851 851 852 853 854 855 856 857 857 858 859 860 860 861 861 861 860 860 860 860 860 860 860 859 859 858 858 858 858
820 819 818 818 817 817 816 815 814 814 814 814 814 815 815 816 817 817 817 819 820 820 820 819 820 821 821 822 822 824 825 825 826 827 829 831 832 833 834 835 836 837 838 839 840 841 842 843 844 845 845 846 847 848 849 850 850 851 852 853 854 855 856 857 858 859 859 860 860 860 859 859 859 859 859 859 859 859 859 858 858 857 857 857 857
821 820 819 818 817 817 817 816 816 815 815 815 815 815 816 816 817 817 817 818 818 819 819 818 818 819 820 821 822 823 824 824 825 827 828 830 831 832 833 834 835 836 838 838 839 840 841 842 844 845 845 846 846 848 849 850 850 851 852 853 853 855 856 857 858 858 859 859 859 859 858 859 859 859 859 859 858 858 858 858 857 857 857 857 857
822 821 820 818 818 817 817 817 817 816 816 816 815 816 816 817 817 817 818 818 819 818 818 818 818 819 819 820 821 822 823 824 825 826 828 829 830 831 832 833 834 835 836 837 838 839 840 842 843 844 845 845 846 847 849 850 850 851 852 852 853 854 855 856 857 857 858 858 858 858 858 858 858 859 859 859 858 858 858 857 857 857 857 857 857
822 821 820 819 818 818 818 818 818 817 817 816 815 816 816 816 816 817 817 818 818 818 818 818 818 819 819 820 821 821 822 823 824 826 827 828 829 830 831 832 832 833 835 836 837 838 839 841 842 843 844 845 846 848 849 850 850 851 852 852 853 853 854 855 855 856 857 857 857 858 858 858 858 859 859 858 858 858 858 858 857 857 857 857 857
823 822 821 821 820 819 819 819 819 819 818 817 816 816 816 816 817 817 818 818 818 818 819 818 819 819 819 820 820 821 822 823 824 825 826 827 828 829 830 831 831 832 833 834 835 837 838 840 841 842 844 845 846 847 848 849 850 850 851 851 852 852 853 853 854 854 855 856 856 857 857 858 858 858 858 859 858 858 858 858 858 857 857 857 856
823 822 821 822 822 822 822 821 821 821 820 819 818 817 817 817 817 818 818 819 819 819 819 819 819 819 819 820 820 821 821 822 823 824 825 826 827 828 829 829 830 831 832 833 834 835 837 838 840 842 843 844 845 846 847 848 849 849 850 850 850 851 851 852 853 853 854 855 855 856 857 857 858 858 858 859 859 858 858 858 857 857 856 856 855
823 822 822 821 822 822 822 822 822 822 821 821 820 819 819 819 819 819 819 819 819 819 820 820 820 819 819 820 820 821 821 821 822 822 823 825 826 826 827 828 828 830 831 832 833 834 836 838 839 841 842 843 844 845 846 847 847 848 848 849 849 850 851 851 852 852 853 854 855 856 857 857 858 858 858 858 858 858 857 857 856 856 855 854 853
824 824 823 823 822 822 822 821 822 822 821 821 821 821 821 821 821 821 821 820 819 820 820 819 820 820 820 820 821 821 820 821 821 821 822 823 824 825 826 827 827 828 829 831 832 834 836 837 838 840 841 842 843 844 845 846 846 847 847 848 849 849 850 850 851 852 853 854 855 856 857 857 858 858 858 858 857 857 856 856 855 854 853 852 851
828 827 827 826 825 824 823 822 822 821 821 821 821 821 822 822 821 822 821 820 820 820 819 818 818 819 819 820 820 820 820 820 820 820 820 820 822 823 824 825 826 827 828 830 831 833 834 836 837 839 841 842 843 844 844 845 845 846 846 847 848 849 850 850 851 852 853 854 855 856 857 857 858 858 857 857 856 856 855 855 854 853 852 851 850
830 830 829 828 827 826 825 824 823 822 821 821 821 821 821 821 821 821 821 820 819 819 818 816 816 817 817 818 819 820 820 820 820 819 819 819 821 823 824 825 827 827 827 828 830 832 833 835 836 839 840 841 842 843 843 844 844 845 846 847 848 848 849 850 851 852 853 854 855 856 856 857 857 857 856 856 855 855 854 853 853 852 851 850 849
830 830 830 829 828 827 826 825 824 822 821 820 821 821 821 820 820 820 819 819 818 817 817 816 815 815 815 816 817 818 819 819 819 818 818 818 819 823 826 828 829 829 829 828 829 831 833 834 836 838 839 840 841 841 842 843 843 844 845 846 847 848 849 850 851 852 853 854 854 855 855 855 856 856 856 855 855 854 853 853 852 851 850 850 849
831 830 830 830 829 828 827 826 825 824 822 820 820 820 820 820 819 818 818 817 817 816 815 815 814 814 814 814 814 815 815 816 817 817 817 816 818 821 824 827 828 829 829 829 830 831 833 834 836 837 839 839 840 840 841 842 843 844 845 846 847 848 849 850 851 851 852 853 853 854 854 854 855 855 854 854 853 853 852 852 851 850 850 849 848
832 831 831 831 830 829 828 827 826 825 824 822 820 819 818 818 818 817 816 816 815 814 814 813 812 812 812 812 812 813 813 815 816 816 816 816 817 819 821 823 825 826 828 830 831 832 834 835 837 838 839 840 840 840 841 842 843 844 845 846 847 848 849 850 850 851 852 852 852 853 853 853 854 853 853 853 853 852 852 851 850 850 849 848 847
832 832 832 832 831 830 829 828 827 826 825 823 822 820 819 817 816 815 815 814 813 812 812 811 810 810 810 810 811 811 812 814 815 815 815 815 815 817 819 821 821 822 824 827 829 831 833 835 837 838 839 840 840 841 841 842 843 844 845 846 847 848 849 850 850 850 851 851 851 852 852 853 853 853 852 852 852 851 851 850 849 848 848 847 847
832 832 832 831 831 830 830 829 828 827 826 824 822 821 820 818 817 815 814 813 812 811 810 809 808 809 809 810 810 811 812 813 813 814 814 814 815 816 817 819 819 819 821 824 825 827 829 832 835 837 838 839 840 840 841 842 843 844 845 846 847 848 849 849 850 850 850 851 851 852 852 852 852 852 852 852 851 851 850 849 849 848 847 846 845
831 831 831 830 830 829 829 829 828 827 826 825 823 822 820 819 817 815 814 812 811 810 809 809 808 808 808 809 809 809 810 811 811 812 812 813 814 816 817 818 818 819 821 822 823 825 827 830 833 836 837 838 838 838 839 841 842 843 844 845 847 848 848 849 849 850 850 851 851 851 851 851 852 852 852 851 851 850 849 849 848 847 846 845 845
831 830 830 829 829 828 828 827 827 826 825 824 823 821 820 818 817 815 814 812 811 811 810 809 808 808 808 808 808 808 808 809 809 810 811 811 813 814 815 816 817 818 819 820 820 822 823 825 828 832 834 835 835 837 838 840 841 842 843 844 845 846 847 849 850 850 850 850 850 850 850 850 851 851 851 850 850 849 849 848 848 847 846 845 844
830 829 829 828 828 827 827 826 825 825 824 823 822 820 819 817 816 814 813 812 811 811 810 809 809 808 808 808 807 807 807 807 808 808 809 810 811 812 813 813 814 814 815 816 817 818 820 821 824 828 831 832 833 835 837 839 840 841 842 843 844 845 847 848 849 850 850 850 850 849 849 850 850 850 850 850 849 849 848 848 847 846 845 845 844
830 829 828 827 827 826 825 825 824 823 822 821 820 818 817 816 815 813 812 811 811 810 810 809 809 808 808 808 807 807 807 807 807 807 808 809 810 811 812 812 813 812 813 813 813 815 817 819 821 825 828 830 831 834 836 837 839 840 841 842 843 845 847 848 849 849 849 849 849 849 849 849 850 850 849 849 848 848 847 847 846 846 845 844 843
829 828 827 827 826 825 824 823 822 821 820 818 817 816 815 814 813 812 811 811 810 810 809 809 808 808 808 808 807 807 807 806 806 807 807 808 809 810 811 812 813 813 814 814 814 815 818 819 820 822 825 828 830 832 834 836 838 839 840 842 843 845 846 847 848 848 848 848 848 848 849 849 849 849 848 848 847 847 847 846 846 845 844 843 842
828 828 827 826 825 824 823 822 820 819 818 817 815 814 814 813 812 811 810 810 809 809 809 808 808 808 808 808 808 807 807 807 807 807 807 808 808 809 810 811 812 812 814 815 816 818 819 821 821 822 825 827 829 831 833 835 837 838 839 841 843 844 845 846 846 847 847 847 847 847 848 848 848 847 847 847 847 846 846 845 845 844 843 842 841
827 827 826 825 824 823 822 821 819 818 817 816 815 814 812 811 810 809 808 808 808 808 808 808 807 807 808 808 808 808 808 808 808 808 808 809 809 809 810 810 811 812 813 815 816 817 819 820 821 823 825 826 827 830 833 834 836 837 839 840 842 843 844 845 845 846 846 846 847 847 847 847 846 846 846 846 845 845 845 844 844 843 843 842 841
826 826 825 824 824 823 822 820 819 818 817 816 814 813 811 810 808 807 807 807 807 807 807 807 807 807 808 808 808 809 809 809 808 809 809 809 810 810 810 811 811 812 814 815 816 817 818 818 820 822 824 826 828 830 832 834 835 836 838 839 840 841 843 844 844 845 845 846 846 846 846 845 845 845 845 845 845 844 844 843 843 842 842 841 840
825 825 824 824 823 823 821 820 819 817 816 815 814 812 811 810 808 807 807 807 808 807 806 806 807 808 808 808 809 809 809 808 808 808 808 809 809 810 811 811 811 812 814 816 817 817 818 818 819 821 824 826 828 830 831 833 834 836 837 838 839 840 841 842 843 844 844 845 845 845 845 844 844 844 844 844 843 843 843 842 842 842 841 840 840
825 824 824 824 823 823 822 820 819 817 816 815 814 813 812 810 810 809 808 809 809 808 807 807 808 809 809 809 809 809 809 809 809 808 808 808 808 809 810 811 812 813 816 818 818 818 818 819 820 823 825 827 829 831 832 833 835 836 837 838 839 840 841 842 843 844 844 844 844 844 843 843 843 843 843 843 842 842 842 841 841 841 841 840 839
825 824 824 824 824 823 822 820 819 817 816 816 815 814 813 812 812 811 811 811 811 810 809 810 810 810 810 810 810 809 809 809 809 809 809 809 809 810 811 812 813 814 816 818 819 819 819 820 822 824 826 828 830 831 833 834 835 836 837 838 839 840 841 842 843 843 843 843 843 843 842 842 842 842 842 842 842 841 841 841 841 840 840 839 838
825 825 824 824 824 823 822 821 820 819 818 817 816 816 815 814 814 814 813 813 813 812 812 812 812 812 812 811 811 811 810 810 810 810 810 810 810 811 812 813 814 815 817 818 819 820 821 822 823 825 827 829 830 832 834 835 837 838 838 839 840 841 841 842 842 842 842 842 842 842 842 842 842 842 841 841 841 841 841 840 840 840 839 838 837
826 826 825 825 825 824 823 822 822 821 819 818 818 817 817 817 816 816 816 815 815 815 814 814 814 813 813 813 812 812 812 812 812 812 812 812 813 813 814 815 816 817 818 819 821 822 823 823 825 826 828 830 832 834 835 836 837 838 839 840 840 840 841 841 841 841 841 841 841 841 841 841 841 841 841 840 840 840 840 840 839 839 838 837 836
827 827 826 826 825 825 824 824 823 822 821 821 820 819 819 819 818 818 818 817 817 817 816 816 816 815 815 815 815 814 814 814 815 815 815 815 816 816 816 817 818 819 820 822 823 824 825 826 827 828 830 832 834 835 836 837 838 838 839 839 840 840 840 840 840 840 840 840 840 840 840 840 840 840 840 839 839 839 839 839 839 838 837 836 835
828 827 827 827 826 826 826 825 825 824 823 823 822 821 821 821 820 820 820 819 819 819 819 818 818 818 818 817 817 817 817 817 817 818 818 819 819 819 820 820 821 822 823 824 826 827 828 829 830 831 832 833 835 836 837 838 838 838 839 839 839 839 839 839 839 839 839 839 839 839 839 839 839 839 838 838 838 838 838 838 838 837 836 835 834
828 828 827 827 827 826 826 826 825 825 825 824 824 823 823 823 822 822 822 822 821 821 821 821 821 821 821 821 821 821 821 821 821 821 822 822 822 823 823 824 825 825 826 827 828 829 830 831 832 833 834 835 836 837 837 837 838 838 839 839 839 839 839 839 839 839 839 838 838 838 838 838 837 837 837 837 837 837 837 837 837 836 835 835 833
829 828 828 827 827 827 826 826 826 826 826 826 826 825 825 825 824 824 824 824 823 823 823 823 823 823 823 823 824 824 824 824 824 824 825 825 825 826 826 827 827 828 828 829 830 831 832 833 833 834 835 836 836 837 837 838 838 839 839 839 839 839 839 839 839 838 838 838 838 837 837 837 836 836 836 836 836 836 836 836 836 835 835 834 833
829 829 828 828 828 827 827 827 827 827 827 827 826 826 826 826 826 826 826 826 825 825 825 825 825 826 826 826 826 826 826 827 827 827 828 828 828 828 829 829 829 830 830 831 832 833 833 834 835 836 836 837 837 838 838 838 839 839 839 839 839 839 839 839 838 838 838 837 837 837 836 836 836 836 836 835 835 835 835 835 835 834 834 833 832